[[{"header":{"parameterUnit":"m.s-1","parameterCategory":1,"la1":30.2991,"la2":30.254,"lo1":-89.0895,"lo2":-89.0444,"dy":0.0017,"dx":0.0017,"nx":28,"ny":28,"refTime":"2025-04-16T03:00:00:Z","depth":0,"parameterNumber":2,"parameterNumberName":"U-component_of_WINDS"},"data":[0,0,0,0,0,0,0,0,0,0,0,0,0,0,0,0,0,0,0,0,0,0,0,0,0,0,0,0,0,0,0,0,0,0,0,0,0,0,0,0,0,0,0,0,0,0,0,0,0,0,0,0,0,0,0,0,0,0,0.0852,0.0851,0,0.0744,0.0743,0.0741,0.0703,0.0704,0.0704,0.0704,0.0586,0.0582,0.0579,0,0,0,0,0,0,0,0,0,0,0,0,0,0.102,0.1018,0.0853,0.0851,0.085,0.0744,0.0743,0.0741,0.0703,0.0704,0.0704,0.0705,0.0587,0.0583,0.0578,0,0,0,0,0,0,0,0,0,0,0,0,0,0.0933,0.1017,0.0853,0.0818,0.0814,0.0744,0.0743,0.0741,0.0703,0.0704,0.0704,0.0705,0.0588,0.0583,0.0578,0.0532,0,0,0.0562,0.0559,0,0,0,0,0,0,0,0,0.0938,0.0927,0.0825,0.0821,0.0816,0.0738,0.0758,0.0671,0.0703,0.0745,0.0704,0.0705,0.0635,0.0626,0.0604,0.0527,0.0522,0.0561,0.0558,0.0556,0.0554,0,0,0,0,0,0,0,0.0944,0.0931,0.0809,0.0823,0.0818,0.0806,0.0794,0.0741,0.0688,0.0741,0.0738,0.0726,0.0633,0.0609,0.0601,0.052,0.0561,0.0557,0.0553,0.0551,0.0399,0.0398,0,0,0,0,0,0,0.0957,0.0937,0.0813,0.0806,0.088,0.0803,0.079,0.0762,0.0688,0.0678,0.0726,0.0725,0.0618,0.0607,0.0597,0.0538,0.0556,0.0551,0.0548,0.04,0.0399,0.0398,0,0,0,0,0,0,0.0961,0.0946,0.0817,0.0871,0.0853,0.0799,0.0769,0.076,0.0736,0.0677,0.0666,0.0712,0.0618,0.0604,0.0549,0.0534,0.0548,0.0543,0.0401,0.04,0.0398,0.0421,0,0,0,0,0,0,0.0966,0.0948,0.0931,0.0871,0.0851,0.0773,0.0768,0.0757,0.0728,0.0726,0.0661,0.0651,0.0618,0.0557,0.0544,0.0526,0.0539,0.0402,0.04,0.0399,0.0421,0.0421,0.042,0,0,0,0,0,0.0972,0.0941,0.0931,0.0916,0.0829,0.0773,0.0761,0.0726,0.0727,0.0709,0.0671,0.0653,0.0538,0.0552,0.0536,0.0517,0.0403,0.0401,0.0399,0.0422,0.0421,0.042,0,0,0,0,0,0,0.0998,0.0932,0.092,0.0869,0.0827,0.0766,0.0742,0.0726,0.068,0.068,0.0636,0.0621,0.057,0.0538,0.0555,0.0469,0.0469,0.0464,0.0492,0.049,0.049,0.0498,0.0535,0,0,0,0,0,0.0999,0.096,0.0903,0.0863,0.0843,0.0797,0.0771,0.0747,0.0701,0.0682,0.064,0.0594,0.0547,0.0517,0.0471,0.0417,0.0402,0.0396,0.0396,0.0396,0.0391,0.036,0.0356,0.0392,0.0392,0.0392,0,0,0.0997,0.0957,0.0935,0.0868,0.0832,0.0792,0.0782,0.0739,0.0708,0.0675,0.0621,0.0588,0.0534,0.0479,0.0453,0.0451,0.0378,0.0393,0.0394,0.0389,0.0357,0.0354,0.0351,0.039,0.0391,0.0391,0,0,0.0975,0.0941,0.0904,0.087,0.0818,0.0787,0.0778,0.072,0.0698,0.0644,0.0619,0.058,0.0501,0.0463,0.0433,0.0399,0.038,0.0384,0.038,0.035,0.0348,0.0345,0.0331,0.0327,0.0381,0.0381,0.0381,0,0.098,0.092,0.0886,0.0845,0.0816,0.0788,0.0749,0.0716,0.0651,0.063,0.063,0.0531,0.0492,0.0428,0.042,0.0397,0.0384,0.0391,0.0351,0.0348,0.0345,0.0332,0.0327,0.0381,0.0381,0.0381,0.0381,0,0.0928,0.0886,0.0862,0.0803,0.0771,0.0731,0.069,0.0661,0.0641,0.061,0.0555,0.0508,0.0452,0.0435,0.0414,0.0368,0.0368,0.036,0.0359,0.0343,0.033,0.0324,0.0383,0.0382,0.0382,0.0382,0,0,0.0917,0.0841,0.0833,0.0806,0.0747,0.0713,0.0672,0.0619,0.0595,0.0551,0.0514,0.0449,0.0441,0.0408,0.0382,0.0356,0.0331,0.0351,0.0349,0.0348,0.0276,0.0282,0.0276,0.0319,0.0318,0.0317,0.028,0,0.0886,0.0813,0.0783,0.0723,0.0684,0.0657,0.0621,0.058,0.055,0.051,0.0476,0.0431,0.0425,0.0405,0.0378,0.034,0.0315,0.0342,0.0281,0.028,0.0295,0.027,0.0275,0.0243,0.0275,0.0274,0.0273,0,0.0839,0.0798,0.0736,0.0683,0.0665,0.0633,0.0583,0.0547,0.0499,0.0479,0.0443,0.0419,0.0373,0.0376,0.0311,0.0329,0.0303,0.0281,0.0278,0.027,0.0275,0.0259,0.0232,0.0227,0.0265,0.0266,0.0266,0,0.0837,0.0766,0.0719,0.0697,0.0633,0.0612,0.0584,0.0537,0.0508,0.0464,0.0444,0.0394,0.0366,0.0327,0.0289,0.0296,0.0227,0.0227,0.0207,0.0208,0.0192,0.0194,0.0159,0.0178,0.0178,0.0178,0.0178,0,0.0805,0.0767,0.0717,0.0688,0.0645,0.061,0.0567,0.0537,0.0496,0.046,0.0433,0.0398,0.0352,0.0311,0.0281,0.0231,0.0219,0.02,0.0192,0.0201,0.0204,0.0182,0.0183,0.0177,0.0177,0.0177,0.0178,0,0.0793,0.0759,0.0706,0.0652,0.0637,0.0608,0.056,0.053,0.05,0.0454,0.0441,0.0393,0.0344,0.0303,0.0238,0.0218,0.0165,0.0156,0.0182,0.0177,0.0159,0.0161,0.0108,0.0099,0.0126,0.0126,0.0125,0,0.0774,0.0745,0.0689,0.0664,0.0638,0.0597,0.0568,0.0532,0.0502,0.0447,0.0423,0.0373,0.0331,0.0253,0.021,0.016,0.0149,0.0135,0.0141,0.0152,0.0148,0.0149,0.0146,0.0133,0.0133,0.0133,0.0133,0,0.0744,0.0729,0.069,0.0644,0.0611,0.0573,0.0534,0.0514,0.0471,0.0439,0.039,0.0357,0.0292,0.0242,0.0187,0.0156,0.0136,0.0132,0.0124,0.0133,0.0148,0.0139,0.0179,0.0132,0.0133,0.0133,0.0133,0.0133,0.0727,0.0701,0.0657,0.0614,0.0582,0.0546,0.0516,0.0483,0.0443,0.0389,0.0369,0.0319,0.0272,0.0197,0.0166,0.0124,0.0122,0.0111,0.0108,0.0106,0.0107,0.0157,0.0114,0.0114,0.0114,0.0114,0.0114,0,0.0695,0.0666,0.0628,0.0575,0.0541,0.053,0.0486,0.0457,0.0414,0.0373,0.0333,0.0277,0.0228,0.0183,0.0132,0.0107,0.0097,0.0094,0.0095,0.0088,0.0112,0.0124,0.0104,0.0104,0.0104,0.0104,0.0104,0.0104,0.0674,0.0628,0.0608,0.0545,0.0516,0.0468,0.0444,0.0411,0.0378,0.0317,0.0278,0.025,0.0207,0.0153,0.0107,0.0095,0.0076,0.0076,0.0062,0.0085,0.0086,0.0088,0.0098,0.0073,0.0073,0.004,0.004,0.004]},{"header":{"parameterUnit":"m.s-1","parameterCategory":1,"la1":30.2991,"la2":30.254,"lo1":-89.0895,"lo2":-89.0444,"dy":0.0017,"dx":0.0017,"nx":28,"ny":28,"refTime":"2025-04-16T03:00:00:Z","depth":0,"parameterNumber":3,"parameterNumberName":"V-component_of_WINDS"},"data":[0,0,0,0,0,0,0,0,0,0,0,0,0,0,0,0,0,0,0,0,0,0,0,0,0,0,0,0,0,0,0,0,0,0,0,0,0,0,0,0,0,0,0,0,0,0,0,0,0,0,0,0,0,0,0,0,0,0,-4.1578,-4.1578,0,-4.1602,-4.1602,-4.1602,-4.1514,-4.1511,-4.1509,-4.1506,-4.1529,-4.1532,-4.1535,0,0,0,0,0,0,0,0,0,0,0,0,0,-4.1454,-4.1457,-4.1578,-4.1578,-4.1579,-4.1602,-4.1602,-4.1602,-4.1514,-4.1511,-4.1508,-4.1505,-4.1528,-4.1531,-4.1535,0,0,0,0,0,0,0,0,0,0,0,0,0,-4.1496,-4.1458,-4.1578,-4.1537,-4.1534,-4.1602,-4.1602,-4.1603,-4.1515,-4.1511,-4.1507,-4.1504,-4.1527,-4.1531,-4.1536,-4.1643,0,0,-4.155,-4.1552,0,0,0,0,0,0,0,0,-4.1494,-4.1501,-4.1543,-4.154,-4.1537,-4.1551,-4.1567,-4.1616,-4.1516,-4.1522,-4.1506,-4.1502,-4.1539,-4.1543,-4.1556,-4.1644,-4.1645,-4.155,-4.1553,-4.1555,-4.1556,0,0,0,0,0,0,0,-4.1491,-4.1499,-4.1587,-4.1544,-4.154,-4.1518,-4.1519,-4.1576,-4.1553,-4.1521,-4.1515,-4.1519,-4.1537,-4.1551,-4.1556,-4.1645,-4.155,-4.1554,-4.1557,-4.1559,-4.1823,-4.1827,0,0,0,0,0,0,-4.1494,-4.1497,-4.1587,-4.1588,-4.1505,-4.1523,-4.1525,-4.155,-4.1552,-4.1548,-4.1523,-4.1515,-4.1546,-4.155,-4.1556,-4.1682,-4.1555,-4.1559,-4.1562,-4.1819,-4.1824,-4.1828,0,0,0,0,0,0,-4.1491,-4.1502,-4.1586,-4.1541,-4.155,-4.1529,-4.1559,-4.1553,-4.1567,-4.1553,-4.1548,-4.1542,-4.1543,-4.155,-4.1622,-4.1681,-4.1561,-4.1565,-4.1813,-4.182,-4.1826,-4.1934,0,0,0,0,0,0,-4.1488,-4.1502,-4.1543,-4.1543,-4.1553,-4.1652,-4.1562,-4.1556,-4.1576,-4.1566,-4.157,-4.1566,-4.154,-4.1616,-4.1627,-4.1685,-4.1569,-4.1808,-4.1816,-4.1824,-4.1926,-4.1944,-4.1959,0,0,0,0,0,-4.1484,-4.1572,-4.1546,-4.1557,-4.1603,-4.1656,-4.1661,-4.163,-4.1581,-4.1622,-4.1612,-4.1566,-4.1673,-4.1624,-4.1635,-4.1697,-4.1804,-4.1814,-4.1823,-4.1918,-4.194,-4.1959,0,0,0,0,0,0,-4.1579,-4.1571,-4.1542,-4.1632,-4.1646,-4.1641,-4.1691,-4.1655,-4.1681,-4.1671,-4.163,-4.1632,-4.1712,-4.1711,-4.1656,-4.18,-4.173,-4.1743,-4.1798,-4.1819,-4.1836,-4.1834,-4.1573,0,0,0,0,0,-4.1611,-4.1655,-4.1645,-4.1726,-4.1734,-4.1712,-4.1733,-4.1708,-4.172,-4.1725,-4.172,-4.1733,-4.1769,-4.1794,-4.1827,-4.1925,-4.1924,-4.1973,-4.199,-4.2004,-4.2015,-4.2067,-4.2089,-4.186,-4.186,-4.186,0,0,-4.1676,-4.1677,-4.1707,-4.1745,-4.1752,-4.1798,-4.1717,-4.1769,-4.1802,-4.1732,-4.1801,-4.1798,-4.1809,-4.1896,-4.1933,-4.1898,-4.2078,-4.2016,-4.2027,-4.2031,-4.2079,-4.2101,-4.212,-4.1866,-4.1865,-4.1864,0,0,-4.1819,-4.1825,-4.1893,-4.1902,-4.1914,-4.1899,-4.1916,-4.1917,-4.1913,-4.1981,-4.193,-4.1968,-4.2032,-4.2042,-4.2056,-4.2204,-4.2162,-4.2215,-4.2304,-4.2356,-4.2374,-4.2389,-4.2442,-4.2462,-4.2227,-4.2227,-4.2227,0,-4.1899,-4.1967,-4.1932,-4.1988,-4.2006,-4.1946,-4.2015,-4.2025,-4.2047,-4.2061,-4.2021,-4.21,-4.2103,-4.2191,-4.2227,-4.224,-4.2257,-4.2215,-4.2374,-4.2389,-4.2404,-4.2454,-4.2474,-4.2233,-4.2233,-4.2232,-4.2231,0,-4.2064,-4.2112,-4.2166,-4.219,-4.2214,-4.2276,-4.225,-4.2279,-4.2252,-4.2241,-4.2311,-4.2313,-4.2345,-4.2364,-4.2338,-4.2449,-4.2426,-4.2381,-4.2309,-4.2432,-4.2479,-4.2498,-4.2242,-4.224,-4.2238,-4.2237,0,0,-4.2268,-4.2273,-4.2293,-4.2303,-4.2313,-4.2349,-4.2408,-4.244,-4.2466,-4.2483,-4.2531,-4.2587,-4.2545,-4.2561,-4.2535,-4.258,-4.2698,-4.2529,-4.2528,-4.2561,-4.282,-4.2855,-4.2877,-4.267,-4.2674,-4.2677,-4.2819,0,-4.2408,-4.2511,-4.2482,-4.2584,-4.2628,-4.2571,-4.2623,-4.2634,-4.2625,-4.2661,-4.265,-4.2691,-4.2632,-4.2641,-4.2684,-4.2675,-4.2749,-4.2664,-4.2715,-4.2717,-4.2714,-4.2902,-4.2938,-4.3073,-4.2837,-4.284,-4.2842,0,-4.2586,-4.2612,-4.2719,-4.2722,-4.2739,-4.2786,-4.2813,-4.2848,-4.286,-4.285,-4.2868,-4.2833,-4.2891,-4.282,-4.2898,-4.2841,-4.286,-4.2859,-4.2863,-4.2867,-4.2787,-4.2911,-4.3115,-4.3135,-4.2871,-4.2868,-4.2866,0,-4.2724,-4.2785,-4.2857,-4.2868,-4.2873,-4.2907,-4.2911,-4.2918,-4.294,-4.2964,-4.2977,-4.3007,-4.3024,-4.3048,-4.3022,-4.2972,-4.3105,-4.3031,-4.3099,-4.31,-4.3129,-4.3128,-4.334,-4.3142,-4.3141,-4.3141,-4.314,0,-4.2885,-4.2952,-4.2919,-4.2964,-4.3038,-4.3004,-4.3078,-4.3075,-4.3082,-4.3125,-4.3077,-4.3118,-4.3081,-4.3119,-4.3099,-4.3167,-4.3175,-4.3169,-4.3163,-4.3173,-4.3174,-4.3185,-4.3175,-4.3146,-4.3145,-4.3144,-4.3143,0,-4.3051,-4.3032,-4.3107,-4.3106,-4.3107,-4.3162,-4.3161,-4.3201,-4.319,-4.3244,-4.3255,-4.3236,-4.3277,-4.3254,-4.3296,-4.3283,-4.3372,-4.3353,-4.3369,-4.3364,-4.3433,-4.3427,-4.3659,-4.3688,-4.3472,-4.3474,-4.3475,0,-4.3155,-4.3206,-4.3211,-4.3236,-4.3244,-4.3285,-4.3307,-4.3275,-4.33,-4.3318,-4.3356,-4.3394,-4.3422,-4.3491,-4.3481,-4.3513,-4.3495,-4.3574,-4.3499,-4.3508,-4.3496,-4.3494,-4.3499,-4.3589,-4.3592,-4.3594,-4.3595,0,-4.3341,-4.3329,-4.3363,-4.3395,-4.3423,-4.3446,-4.3464,-4.3488,-4.3456,-4.3486,-4.3529,-4.3551,-4.3595,-4.3633,-4.366,-4.3663,-4.3625,-4.3619,-4.3636,-4.3648,-4.3655,-4.3652,-4.341,-4.3614,-4.3612,-4.3611,-4.361,-4.3609,-4.3479,-4.3522,-4.3533,-4.3573,-4.3584,-4.3603,-4.3641,-4.3635,-4.367,-4.3703,-4.3682,-4.3733,-4.3743,-4.3776,-4.3784,-4.3822,-4.379,-4.3815,-4.3822,-4.3828,-4.3838,-4.3649,-4.3827,-4.3826,-4.3826,-4.3825,-4.3825,0,-4.3664,-4.3668,-4.3705,-4.3733,-4.3765,-4.3726,-4.3745,-4.3774,-4.3819,-4.3832,-4.3861,-4.391,-4.3947,-4.394,-4.3973,-4.4005,-4.3988,-4.4015,-4.4012,-4.4014,-4.3865,-4.3846,-4.4028,-4.4028,-4.4028,-4.4028,-4.4028,-4.4028,-4.3763,-4.3834,-4.3824,-4.3899,-4.3903,-4.3952,-4.3966,-4.3983,-4.3994,-4.4051,-4.4082,-4.4077,-4.4083,-4.4116,-4.4148,-4.4145,-4.4159,-4.4193,-4.4183,-4.4044,-4.4024,-4.4005,-4.3988,-4.4196,-4.4196,-4.4329,-4.433,-4.4331]}]]